Location: Exeidioux
(45.6312°N, 1.6819°E)
Time: 17:11:19
(UTC+00:00)

Cosmos 2219 Rocket - Pass Details

Date: 03 March 2021
Orbit: 826 x 848 km, 71.0° (Epoch: 15 April)

Event Time Altitude Azimuth Distance (km) Brightness Sun altitude
Rises 19:22:50 0° 185° (S) 3,351 5.3 -18.2°
Reaches altitude 10° 19:25:21 10° 179° (S) 2,423 4.5 -18.6°
Maximum altitude 19:30:35 45° 108° (ESE) 1,124 2.4 -19.5°
Drops below altitude 10° 19:35:53 10° 37° (NE) 2,449 4.4 -20.4°
Sets 19:38:25 0° 32° (NNE) 3,391 5.2 -20.9°
